This is the latest recevied weather packets stored in our database for station/object W0AVQ. If no packets are shown the sender has not sent any weather packets the latest 10 day(s).
| Time | Temp. | Humidity | Pressure | Rain* | Wind** | Luminosity | Snow |
|---|---|---|---|---|---|---|---|
| 1777932662 | 26.11° C | 46% | 1009.1 hPa | 0 mm | - | 133 W/m² | - |
| 1777932358 | 26.11° C | 46% | 1009.2 hPa | 0 mm | - | 79 W/m² | - |
| 1777932056 | 26.11° C | 45% | 1009.3 hPa | 0 mm | - | 73 W/m² | - |
| 1777931752 | 26.67° C | 45% | 1009.1 hPa | 0 mm | - | 72 W/m² | - |
| 1777931450 | 26.67° C | 45% | 1009.3 hPa | 0 mm | - | 78 W/m² | - |
| 1777931145 | 26.67° C | 45% | 1009.1 hPa | 0 mm | - | 89 W/m² | - |
| 1777930842 | 26.67° C | 45% | 1009.3 hPa | 0 mm | - | 96 W/m² | - |
| 1777930538 | 26.67° C | 44% | 1009.3 hPa | 0 mm | - | 95 W/m² | - |
| 1777930236 | 26.67° C | 44% | 1009.5 hPa | 0 mm | - | 193 W/m² | - |
| 1777929931 | 26.67° C | 44% | 1009.7 hPa | 0 mm | - | 375 W/m² | - |
| 1777929629 | 26.67° C | 43% | 1009.5 hPa | 0 mm | - | 330 W/m² | - |
| 1777929326 | 27.22° C | 43% | 1009.2 hPa | 0 mm | - | 460 W/m² | - |
| 1777929023 | 27.22° C | 42% | 1009.7 hPa | 0 mm | - | 191 W/m² | - |
| 1777928720 | 27.22° C | 42% | 1009.4 hPa | 0 mm | - | 80 W/m² | - |
| 1777928416 | 27.22° C | 44% | 1009.4 hPa | 0 mm | - | 73 W/m² | - |
| 1777928115 | 27.22° C | 42% | 1009.2 hPa | 0 mm | - | 70 W/m² | - |
| 1777927812 | 27.22° C | 42% | 1009.4 hPa | 0 mm | - | 69 W/m² | - |
| 1777927510 | 27.22° C | 40% | 1009.3 hPa | 0 mm | - | 68 W/m² | - |
| 1777927209 | 27.22° C | 42% | 1009.3 hPa | 0 mm | - | 68 W/m² | - |
| 1777926906 | 26.67° C | 42% | 1009.4 hPa | 0 mm | - | 69 W/m² | - |
| 1777926603 | 26.67° C | 40% | 1009.6 hPa | 0 mm | - | 71 W/m² | - |
| 1777926299 | 26.67° C | 39% | 1009.4 hPa | 0 mm | - | 74 W/m² | - |
| 1777925996 | 26.67° C | 40% | 1009.5 hPa | 0 mm | - | 77 W/m² | - |
| 1777925693 | 27.22° C | 41% | 1009.5 hPa | 0 mm | - | 80 W/m² | - |
| 1777925390 | 26.67° C | 42% | 1009.6 hPa | 0 mm | - | 80 W/m² | - |
* Rain latest hour (hover to see other rain measurements)
** Current wind speed in m/s (hover to see current wind gust speed)